KLM945 EHAM-EGPF

Flight info

Callsign KLM945
Flight time 1h 13m
Altitude 40000
Route BERGI L602 SUPUR P1 GODOS DCT ROXAT DCT BAZNA DCT ANMAZ DCT EWOKE DCT AGPED
Aircraft B738/M-SDE2E3FGHIRWXY/LB1

Departure

Time 2026-05-07 09:55
Airport Amsterdam Airport Schiphol (EHAM)

Arrival

Time 2026-05-07 11:08
Airport Glasgow Airport (EGPF)
Time Latitude Longitude Altitude Speed Heading
2026-05-07 08:54 52.30666 4.76592 -2 ft 0 kts 248°
2026-05-07 08:56 52.30544 4.76806 -2 ft 0 kts 294°
2026-05-07 09:36 52.30541 4.76817 -2 ft 3 kts 290°
2026-05-07 09:36 52.30536 4.76852 -2 ft 3 kts 263°
2026-05-07 09:37 52.30544 4.76885 -2 ft 3 kts 219°
2026-05-07 09:37 52.30564 4.76900 -2 ft 3 kts 179°
2026-05-07 09:37 52.30581 4.76894 -2 ft 2 kts 147°
2026-05-07 09:37 52.30563 4.76911 -2 ft 3 kts 153°
2026-05-07 09:38 52.30549 4.76924 -2 ft 0 kts 147°
2026-05-07 09:46 52.30547 4.76927 -2 ft 1 kts 147°
2026-05-07 09:47 52.30518 4.76956 -2 ft 9 kts 147°
2026-05-07 09:47 52.30464 4.77013 -2 ft 11 kts 147°
2026-05-07 09:47 52.30387 4.77011 -2 ft 12 kts 223°
2026-05-07 09:47 52.30359 4.76943 -2 ft 9 kts 238°
2026-05-07 09:48 52.30313 4.76824 -2 ft 16 kts 238°
2026-05-07 09:48 52.30247 4.76653 -2 ft 19 kts 237°
2026-05-07 09:48 52.30184 4.76490 -2 ft 18 kts 237°
2026-05-07 09:48 52.30110 4.76295 -2 ft 20 kts 237°
2026-05-07 09:49 52.30031 4.76091 -2 ft 22 kts 238°
2026-05-07 09:49 52.29957 4.75899 -2 ft 19 kts 238°
2026-05-07 09:49 52.29889 4.75720 -2 ft 17 kts 238°
2026-05-07 09:49 52.29830 4.75565 -2 ft 16 kts 238°
2026-05-07 09:50 52.29786 4.75444 -2 ft 5 kts 242°
2026-05-07 09:50 52.29775 4.75392 -2 ft 0 kts 254°
2026-05-07 09:50 52.29774 4.75371 -2 ft 3 kts 264°
2026-05-07 09:50 52.29774 4.75353 -2 ft 2 kts 279°
2026-05-07 09:51 52.29798 4.75279 -2 ft 13 kts 310°
2026-05-07 09:51 52.29888 4.75108 -2 ft 24 kts 311°
2026-05-07 09:51 52.29964 4.74947 -2 ft 15 kts 285°
2026-05-07 09:51 52.29967 4.74759 1 ft 17 kts 268°
2026-05-07 09:52 52.30019 4.74602 8 ft 18 kts 316°
2026-05-07 09:52 52.30132 4.74421 8 ft 28 kts 315°
2026-05-07 09:52 52.30217 4.74277 4 ft 18 kts 313°
2026-05-07 09:52 52.30252 4.74166 -2 ft 1 kts 300°
2026-05-07 09:53 52.30274 4.74141 -2 ft 9 kts 326°
2026-05-07 09:53 52.30328 4.74077 -2 ft 3 kts 299°
2026-05-07 09:53 52.30302 4.74003 -2 ft 13 kts 213°
2026-05-07 09:53 52.30210 4.73903 -2 ft 16 kts 223°
2026-05-07 09:54 52.30205 4.73759 -3 ft 13 kts 317°
2026-05-07 09:54 52.30312 4.73749 -5 ft 21 kts
2026-05-07 09:54 52.30498 4.73765 -4 ft 37 kts
2026-05-07 09:54 52.30925 4.73804 -2 ft 92 kts
2026-05-07 09:55 52.31771 4.73882 -3 ft 149 kts
2026-05-07 09:55 52.32937 4.73998 173 ft 184 kts
2026-05-07 09:55 52.34282 4.74138 861 ft 198 kts
2026-05-07 09:55 52.35640 4.73413 1064 ft 228 kts 329°
2026-05-07 09:56 52.37006 4.71865 1272 ft 248 kts 328°
2026-05-07 09:56 52.38418 4.70270 1446 ft 239 kts 330°
2026-05-07 09:56 52.39745 4.68861 1499 ft 217 kts 331°
2026-05-07 09:56 52.40985 4.67600 1291 ft 201 kts 332°
2026-05-07 09:57 52.42167 4.66432 1303 ft 197 kts 333°
2026-05-07 09:57 52.43377 4.65260 1426 ft 211 kts 334°
2026-05-07 09:57 52.44692 4.64004 1746 ft 225 kts 334°
2026-05-07 09:57 52.46084 4.62698 2293 ft 233 kts 335°
2026-05-07 09:58 52.47498 4.61375 2922 ft 235 kts 335°
2026-05-07 09:58 52.48916 4.60060 3658 ft 234 kts 334°
2026-05-07 09:58 52.50344 4.58740 4341 ft 236 kts 334°
2026-05-07 09:58 52.51772 4.57417 5002 ft 236 kts 334°
2026-05-07 09:59 52.53211 4.56090 5563 ft 239 kts 333°
2026-05-07 09:59 52.54665 4.54745 6208 ft 237 kts 334°
2026-05-07 09:59 52.56088 4.53428 6775 ft 240 kts 333°
2026-05-07 09:59 52.57541 4.52083 7299 ft 242 kts 333°
2026-05-07 10:00 52.58989 4.50661 7849 ft 243 kts 325°
2026-05-07 10:00 52.60279 4.48796 8305 ft 249 kts 317°
2026-05-07 10:00 52.61515 4.46766 8776 ft 254 kts 316°
2026-05-07 10:00 52.62765 4.44686 9316 ft 259 kts 316°
2026-05-07 10:01 52.64041 4.42573 10067 ft 257 kts 316°
2026-05-07 10:01 52.65311 4.40486 10718 ft 259 kts 316°
2026-05-07 10:01 52.66610 4.38370 11254 ft 266 kts 315°
2026-05-07 10:01 52.67928 4.36228 11911 ft 268 kts 315°
2026-05-07 10:02 52.68540 4.35236 12214 ft 268 kts 315°
2026-05-07 10:02 52.69860 4.33099 12903 ft 271 kts 314°
2026-05-07 10:02 52.71232 4.30881 13558 ft 275 kts 314°
2026-05-07 10:02 52.72589 4.28690 14126 ft 279 kts 314°
2026-05-07 10:03 52.73981 4.26442 14754 ft 281 kts 315°
2026-05-07 10:03 52.75375 4.24192 15472 ft 280 kts 314°
2026-05-07 10:03 52.76778 4.21929 16112 ft 284 kts 315°
2026-05-07 10:03 52.78186 4.19654 16627 ft 290 kts 315°
2026-05-07 10:04 52.79611 4.17352 17345 ft 289 kts 314°
2026-05-07 10:04 52.81066 4.14998 18018 ft 292 kts 315°
2026-05-07 10:04 52.82511 4.12659 18574 ft 294 kts 315°
2026-05-07 10:04 52.83973 4.10290 19117 ft 297 kts 314°
2026-05-07 10:05 52.85472 4.07857 19551 ft 303 kts 314°
2026-05-07 10:05 52.86974 4.05418 20181 ft 303 kts 314°
2026-05-07 10:05 52.88486 4.02963 20707 ft 306 kts 312°
2026-05-07 10:05 52.90003 4.00496 21306 ft 307 kts 311°
2026-05-07 10:06 52.91541 3.97990 21767 ft 312 kts 313°
2026-05-07 10:06 52.93103 3.95438 22209 ft 318 kts 311°
2026-05-07 10:06 52.94670 3.92875 22790 ft 319 kts 312°
2026-05-07 10:06 52.96204 3.90370 23233 ft 323 kts 312°
2026-05-07 10:07 52.97069 3.88957 23478 ft 326 kts 313°
2026-05-07 10:07 52.98689 3.86309 23900 ft 328 kts 313°
2026-05-07 10:07 53.00322 3.83634 24354 ft 330 kts 312°
2026-05-07 10:07 53.01966 3.80940 24760 ft 333 kts 312°
2026-05-07 10:08 53.03601 3.78251 25074 ft 340 kts 311°
2026-05-07 10:08 53.05318 3.75427 25141 ft 354 kts 312°
2026-05-07 10:08 53.07099 3.72490 25238 ft 367 kts 312°
2026-05-07 10:08 53.08930 3.69469 25330 ft 380 kts 312°
2026-05-07 10:09 53.10836 3.66323 25431 ft 392 kts 312°
2026-05-07 10:09 53.12807 3.63069 25515 ft 404 kts 312°
2026-05-07 10:09 53.14830 3.59724 25596 ft 415 kts 312°
2026-05-07 10:09 53.15915 3.57929 25631 ft 419 kts 314°
2026-05-07 10:10 53.16938 3.56236 25703 ft 424 kts 313°
2026-05-07 10:10 53.19049 3.52736 25776 ft 434 kts 313°
2026-05-07 10:10 53.21219 3.49130 25866 ft 443 kts 313°
2026-05-07 10:10 53.23388 3.45521 26059 ft 448 kts 313°
2026-05-07 10:11 53.25491 3.41665 26374 ft 448 kts 304°
2026-05-07 10:11 53.27228 3.37356 26750 ft 447 kts 300°
2026-05-07 10:11 53.28864 3.33001 27075 ft 448 kts 300°
2026-05-07 10:11 53.30522 3.28562 27360 ft 451 kts 300°
2026-05-07 10:12 53.31388 3.26254 27518 ft 452 kts 300°
2026-05-07 10:12 53.33051 3.21860 27811 ft 454 kts 300°
2026-05-07 10:12 53.34766 3.17365 28098 ft 456 kts 300°
2026-05-07 10:12 53.36435 3.13005 28361 ft 458 kts 300°
2026-05-07 10:13 53.38135 3.08566 28617 ft 461 kts 300°
2026-05-07 10:13 53.39867 3.04033 28954 ft 461 kts 300°
2026-05-07 10:13 53.41590 2.99593 29431 ft 459 kts 303°
2026-05-07 10:13 53.43556 2.95374 29870 ft 459 kts 308°
2026-05-07 10:14 53.45638 2.91310 30211 ft 459 kts 309°
2026-05-07 10:14 53.47752 2.87291 30495 ft 459 kts 309°
2026-05-07 10:14 53.49870 2.83272 30820 ft 458 kts 309°
2026-05-07 10:14 53.51969 2.79251 31167 ft 457 kts 309°
2026-05-07 10:15 53.54050 2.75224 31504 ft 455 kts 309°
2026-05-07 10:15 53.56095 2.71227 31805 ft 455 kts 309°
2026-05-07 10:15 53.58147 2.67192 32118 ft 454 kts 308°
2026-05-07 10:15 53.60188 2.63162 32439 ft 453 kts 308°
2026-05-07 10:16 53.62235 2.59110 32756 ft 452 kts 309°
2026-05-07 10:16 53.64245 2.55122 33105 ft 450 kts 309°
2026-05-07 10:16 53.66264 2.51113 33476 ft 448 kts 309°
2026-05-07 10:16 53.68278 2.47107 33780 ft 447 kts 309°
2026-05-07 10:17 53.69304 2.45064 33910 ft 447 kts 309°
2026-05-07 10:17 53.71293 2.41099 34114 ft 447 kts 309°
2026-05-07 10:17 53.73297 2.37100 34411 ft 445 kts 308°
2026-05-07 10:17 53.75288 2.33119 34709 ft 442 kts 308°
2026-05-07 10:18 53.77283 2.29126 34879 ft 444 kts 308°
2026-05-07 10:18 53.79270 2.25140 35013 ft 445 kts 308°
2026-05-07 10:18 53.81270 2.21122 35186 ft 446 kts 308°
2026-05-07 10:18 53.83268 2.17101 35378 ft 446 kts 308°
2026-05-07 10:19 53.85247 2.13113 35583 ft 446 kts 309°
2026-05-07 10:19 53.87243 2.09083 35745 ft 446 kts 308°
2026-05-07 10:19 53.89240 2.05046 35932 ft 446 kts 308°
2026-05-07 10:19 53.91232 2.01012 36143 ft 446 kts 308°
2026-05-07 10:20 53.93225 1.96968 36302 ft 446 kts 308°
2026-05-07 10:20 53.95219 1.92916 36469 ft 447 kts 308°
2026-05-07 10:20 53.97205 1.88874 36643 ft 446 kts 308°
2026-05-07 10:20 53.99194 1.84819 36833 ft 446 kts 308°
2026-05-07 10:21 54.01180 1.80764 36990 ft 447 kts 308°
2026-05-07 10:21 54.03166 1.76702 37139 ft 447 kts 308°
2026-05-07 10:21 54.05161 1.72616 37315 ft 446 kts 308°
2026-05-07 10:21 54.07144 1.68546 37473 ft 446 kts 308°
2026-05-07 10:22 54.08097 1.66588 37554 ft 447 kts 308°
2026-05-07 10:22 54.10075 1.62518 37688 ft 447 kts 308°
2026-05-07 10:22 54.12059 1.58429 37842 ft 447 kts 307°
2026-05-07 10:22 54.14022 1.54380 38020 ft 446 kts 307°
2026-05-07 10:23 54.15962 1.50370 38162 ft 446 kts 307°
2026-05-07 10:23 54.19615 1.41823 38323 ft 445 kts 295°
2026-05-07 10:23 54.20997 1.37110 38505 ft 443 kts 294°
2026-05-07 10:24 54.22331 1.32370 38705 ft 441 kts 293°
2026-05-07 10:24 54.23654 1.27631 38811 ft 441 kts 293°
2026-05-07 10:24 54.24981 1.22895 38865 ft 443 kts 293°
2026-05-07 10:24 54.26304 1.18209 39026 ft 441 kts 294°
2026-05-07 10:25 54.27645 1.13488 39147 ft 440 kts 294°
2026-05-07 10:25 54.30312 1.04124 39325 ft 440 kts 294°
2026-05-07 10:26 54.32994 0.94692 39445 ft 441 kts 294°
2026-05-07 10:26 54.35676 0.85223 39549 ft 443 kts 294°
2026-05-07 10:27 54.37635 0.78280 39664 ft 443 kts 294°
2026-05-07 10:27 54.40318 0.68734 39707 ft 446 kts 294°
2026-05-07 10:28 54.43017 0.59091 39749 ft 448 kts 294°
2026-05-07 10:28 54.45710 0.49432 39900 ft 448 kts 294°
2026-05-07 10:28 54.47051 0.44608 40007 ft 447 kts 294°
2026-05-07 10:29 54.48388 0.39787 40059 ft 447 kts 294°
2026-05-07 10:29 54.51055 0.30136 40085 ft 448 kts 294°
2026-05-07 10:30 54.55051 0.15612 40084 ft 450 kts 293°
2026-05-07 10:30 54.57819 0.05920 40082 ft 452 kts 295°
2026-05-07 10:31 54.60740 -0.03699 40133 ft 453 kts 296°
2026-05-07 10:31 54.63637 -0.13275 40083 ft 452 kts 295°
2026-05-07 10:32 54.65781 -0.20449 40073 ft 451 kts 295°
2026-05-07 10:32 54.68606 -0.29980 40071 ft 449 kts 295°
2026-05-07 10:33 54.71423 -0.39536 40073 ft 447 kts 295°
2026-05-07 10:33 54.74236 -0.49114 40069 ft 445 kts 295°
2026-05-07 10:34 54.77014 -0.58611 40089 ft 444 kts 295°
2026-05-07 10:34 54.79793 -0.68145 39987 ft 438 kts 295°
2026-05-07 10:35 54.81159 -0.72843 39600 ft 434 kts 295°
2026-05-07 10:35 54.82499 -0.77463 39049 ft 434 kts 294°
2026-05-07 10:35 54.83844 -0.82117 38351 ft 437 kts 294°
2026-05-07 10:35 54.85211 -0.86854 37616 ft 439 kts 294°
2026-05-07 10:36 54.86575 -0.91585 36947 ft 439 kts 294°
2026-05-07 10:36 54.87929 -0.96292 36338 ft 438 kts 294°
2026-05-07 10:36 54.89253 -1.00905 35759 ft 437 kts 294°
2026-05-07 10:36 54.90596 -1.05591 35197 ft 436 kts 294°
2026-05-07 10:37 54.91170 -1.07600 34948 ft 436 kts 294°
2026-05-07 10:37 54.92510 -1.12291 34352 ft 435 kts 294°
2026-05-07 10:37 54.93853 -1.16997 33739 ft 434 kts 294°
2026-05-07 10:37 54.95191 -1.21700 33001 ft 435 kts 294°
2026-05-07 10:38 54.96476 -1.26481 32212 ft 435 kts 291°
2026-05-07 10:38 54.97732 -1.31293 31426 ft 437 kts 293°
2026-05-07 10:38 54.99090 -1.36047 30658 ft 439 kts 294°
2026-05-07 10:38 55.00496 -1.40798 29870 ft 440 kts 295°
2026-05-07 10:39 55.01908 -1.45546 28919 ft 441 kts 295°
2026-05-07 10:39 55.03320 -1.50319 27897 ft 444 kts 295°
2026-05-07 10:39 55.04709 -1.55064 26863 ft 448 kts 295°
2026-05-07 10:39 55.06110 -1.59888 26414 ft 439 kts 295°
2026-05-07 10:40 55.07472 -1.64608 26251 ft 423 kts 295°
2026-05-07 10:40 55.08758 -1.69080 26129 ft 408 kts 295°
2026-05-07 10:40 55.09996 -1.73405 26097 ft 393 kts 295°
2026-05-07 10:40 55.11212 -1.77669 26103 ft 392 kts 295°
2026-05-07 10:41 55.12416 -1.81903 25838 ft 386 kts 295°
2026-05-07 10:41 55.13609 -1.86103 25201 ft 387 kts 295°
2026-05-07 10:41 55.14803 -1.90318 24539 ft 388 kts 295°
2026-05-07 10:41 55.16004 -1.94562 23984 ft 388 kts 295°
2026-05-07 10:42 55.16613 -1.96715 23736 ft 386 kts 295°
2026-05-07 10:42 55.17799 -2.00915 23204 ft 383 kts 295°
2026-05-07 10:42 55.18971 -2.05072 22688 ft 380 kts 295°
2026-05-07 10:42 55.20138 -2.09218 22163 ft 377 kts 295°
2026-05-07 10:43 55.21277 -2.13270 21654 ft 374 kts 295°
2026-05-07 10:43 55.22425 -2.17362 21147 ft 371 kts 295°
2026-05-07 10:43 55.23556 -2.21401 20650 ft 369 kts 295°
2026-05-07 10:43 55.24683 -2.25434 20218 ft 365 kts 295°
2026-05-07 10:44 55.25802 -2.29444 20086 ft 368 kts 295°
2026-05-07 10:44 55.26925 -2.33479 20044 ft 369 kts 295°
2026-05-07 10:44 55.28041 -2.37493 20034 ft 365 kts 294°
2026-05-07 10:44 55.29152 -2.41493 20021 ft 364 kts 294°
2026-05-07 10:45 55.30264 -2.45508 20015 ft 365 kts 294°
2026-05-07 10:45 55.31362 -2.49476 20016 ft 366 kts 294°
2026-05-07 10:45 55.32468 -2.53482 19966 ft 361 kts 294°
2026-05-07 10:45 55.33553 -2.57415 19599 ft 357 kts 294°
2026-05-07 10:46 55.34632 -2.61337 19087 ft 357 kts 294°
2026-05-07 10:46 55.35713 -2.65274 18517 ft 358 kts 294°
2026-05-07 10:46 55.36790 -2.69202 18161 ft 357 kts 294°
2026-05-07 10:46 55.37875 -2.73167 18064 ft 361 kts 294°
2026-05-07 10:47 55.38454 -2.75285 18028 ft 360 kts 294°
2026-05-07 10:47 55.39531 -2.79227 18005 ft 352 kts 294°
2026-05-07 10:47 55.40590 -2.83113 18014 ft 357 kts 294°
2026-05-07 10:47 55.41670 -2.87083 18008 ft 361 kts 294°
2026-05-07 10:48 55.42753 -2.91070 17998 ft 360 kts 294°
2026-05-07 10:48 55.43828 -2.95035 17992 ft 359 kts 294°
2026-05-07 10:48 55.44889 -2.98954 17995 ft 358 kts 294°
2026-05-07 10:48 55.45958 -3.02910 17992 ft 358 kts 294°
2026-05-07 10:49 55.47018 -3.06836 17999 ft 358 kts 294°
2026-05-07 10:49 55.48087 -3.10807 17995 ft 358 kts 294°
2026-05-07 10:49 55.49155 -3.14781 18012 ft 358 kts 294°
2026-05-07 10:49 55.50220 -3.18750 18004 ft 358 kts 294°
2026-05-07 10:50 55.51285 -3.22722 17991 ft 358 kts 294°
2026-05-07 10:50 55.52348 -3.26698 17994 ft 358 kts 294°
2026-05-07 10:50 55.53411 -3.30668 17963 ft 356 kts 295°
2026-05-07 10:50 55.54743 -3.34317 17646 ft 352 kts 306°
2026-05-07 10:51 55.56300 -3.37652 17160 ft 351 kts 308°
2026-05-07 10:51 55.57872 -3.40884 16577 ft 351 kts 309°
2026-05-07 10:51 55.59489 -3.44184 16037 ft 350 kts 309°
2026-05-07 10:51 55.61015 -3.47293 15650 ft 346 kts 309°
2026-05-07 10:52 55.61840 -3.48975 15621 ft 338 kts 309°
2026-05-07 10:52 55.63359 -3.52065 15531 ft 326 kts 309°
2026-05-07 10:52 55.64826 -3.55048 15320 ft 318 kts 309°
2026-05-07 10:52 55.66273 -3.57994 14948 ft 317 kts 309°
2026-05-07 10:53 55.67230 -3.59944 14678 ft 317 kts 309°
2026-05-07 10:53 55.68675 -3.62897 14291 ft 316 kts 309°
2026-05-07 10:53 55.70109 -3.65836 13938 ft 314 kts 309°
2026-05-07 10:53 55.71529 -3.68756 13578 ft 311 kts 309°
2026-05-07 10:54 55.72915 -3.71614 13516 ft 300 kts 309°
2026-05-07 10:54 55.74255 -3.74374 13416 ft 290 kts 309°
2026-05-07 10:54 55.75461 -3.77187 13099 ft 285 kts 296°
2026-05-07 10:54 55.76243 -3.80403 12755 ft 285 kts 290°
2026-05-07 10:55 55.76949 -3.83799 12691 ft 298 kts 289°
2026-05-07 10:55 55.77636 -3.87189 12592 ft 286 kts 289°
2026-05-07 10:55 55.78298 -3.90486 12264 ft 282 kts 289°
2026-05-07 10:55 55.78955 -3.93783 11857 ft 283 kts 289°
2026-05-07 10:56 55.79610 -3.97085 11466 ft 282 kts 289°
2026-05-07 10:56 55.80225 -4.00201 11119 ft 281 kts 289°
2026-05-07 10:56 55.80984 -4.03526 10693 ft 281 kts 302°
2026-05-07 10:56 55.82353 -4.05981 10304 ft 282 kts 329°
2026-05-07 10:57 55.84199 -4.07104 9979 ft 282 kts 350°
2026-05-07 10:57 55.86138 -4.07512 9636 ft 280 kts 353°
2026-05-07 10:57 55.88078 -4.07717 9258 ft 280 kts
2026-05-07 10:57 55.89961 -4.06989 9152 ft 271 kts 14°
2026-05-07 10:58 55.91748 -4.06108 9064 ft 263 kts 14°
2026-05-07 10:58 55.93502 -4.05235 9025 ft 258 kts 14°
2026-05-07 10:58 55.95203 -4.04386 8936 ft 250 kts 14°
2026-05-07 10:58 55.96865 -4.03560 8746 ft 247 kts 14°
2026-05-07 10:59 55.98528 -4.02725 8468 ft 248 kts 14°
2026-05-07 10:59 56.00183 -4.01894 8252 ft 245 kts 14°
2026-05-07 10:59 56.01814 -4.01080 7946 ft 243 kts 14°
2026-05-07 10:59 56.03450 -4.00261 7502 ft 245 kts 14°
2026-05-07 11:00 56.05117 -3.99654 7067 ft 244 kts 358°
2026-05-07 11:00 56.06695 -4.00445 6763 ft 234 kts 324°
2026-05-07 11:00 56.07896 -4.02241 6706 ft 218 kts 315°
2026-05-07 11:00 56.08990 -4.04085 6358 ft 216 kts 314°
2026-05-07 11:01 56.09986 -4.06029 5951 ft 212 kts 298°
2026-05-07 11:01 56.10321 -4.08531 5555 ft 207 kts 262°
2026-05-07 11:01 56.09770 -4.10757 5396 ft 191 kts 224°
2026-05-07 11:01 56.08636 -4.11814 5180 ft 184 kts 185°
2026-05-07 11:02 56.07418 -4.11324 4914 ft 185 kts 147°
2026-05-07 11:02 56.06358 -4.10063 4594 ft 182 kts 163°
2026-05-07 11:02 56.05147 -4.10314 4253 ft 181 kts 213°
2026-05-07 11:02 56.04204 -4.11835 3893 ft 184 kts 220°
2026-05-07 11:03 56.03267 -4.13427 3648 ft 186 kts 222°
2026-05-07 11:03 56.02350 -4.15068 3462 ft 185 kts 223°
2026-05-07 11:03 56.01487 -4.16657 3401 ft 176 kts 223°
2026-05-07 11:03 56.00657 -4.18206 3309 ft 171 kts 225°
2026-05-07 11:04 55.99817 -4.19826 3031 ft 176 kts 223°
2026-05-07 11:04 55.98983 -4.21341 3024 ft 166 kts 223°
2026-05-07 11:04 55.98198 -4.22788 2988 ft 159 kts 223°
2026-05-07 11:04 55.97438 -4.24197 2729 ft 158 kts 224°
2026-05-07 11:05 55.96705 -4.25566 2531 ft 149 kts 223°
2026-05-07 11:05 55.96002 -4.26876 2331 ft 141 kts 223°
2026-05-07 11:05 55.95343 -4.28103 2112 ft 135 kts 222°
2026-05-07 11:05 55.94663 -4.29347 1980 ft 153 kts 223°
2026-05-07 11:06 55.93876 -4.30821 1710 ft 165 kts 224°
2026-05-07 11:06 55.93095 -4.32287 1478 ft 160 kts 224°
2026-05-07 11:06 55.92334 -4.33713 1270 ft 157 kts 223°
2026-05-07 11:06 55.91590 -4.35101 1070 ft 153 kts 223°
2026-05-07 11:07 55.90870 -4.36452 936 ft 151 kts 224°
2026-05-07 11:07 55.90147 -4.37792 832 ft 150 kts 223°
2026-05-07 11:07 55.89429 -4.39143 644 ft 148 kts 223°
2026-05-07 11:07 55.88725 -4.40462 368 ft 145 kts 222°
2026-05-07 11:08 55.88029 -4.41725 128 ft 142 kts 225°
2026-05-07 11:08 55.87362 -4.42993 29 ft 133 kts 224°
2026-05-07 11:08 55.86829 -4.44010 28 ft 82 kts 226°
2026-05-07 11:08 55.86608 -4.44394 28 ft 38 kts 217°
2026-05-07 11:09 55.86469 -4.44514 28 ft 15 kts 198°
2026-05-07 11:09 55.86379 -4.44524 28 ft 11 kts 142°
2026-05-07 11:09 55.86376 -4.44431 28 ft 8 kts 54°
2026-05-07 11:09 55.86410 -4.44362 28 ft 6 kts 48°
2026-05-07 11:10 55.86439 -4.44305 28 ft 6 kts 46°
2026-05-07 11:10 55.86469 -4.44249 28 ft 6 kts 46°
2026-05-07 11:10 55.86498 -4.44195 28 ft 6 kts 46°
2026-05-07 11:10 55.86527 -4.44142 28 ft 6 kts 46°
2026-05-07 11:11 55.86555 -4.44089 28 ft 6 kts 46°
2026-05-07 11:11 55.86583 -4.44037 28 ft 6 kts 46°
2026-05-07 11:11 55.86616 -4.43976 28 ft 8 kts 46°
2026-05-07 11:11 55.86662 -4.43890 28 ft 11 kts 46°
2026-05-07 11:12 55.86719 -4.43780 28 ft 11 kts 55°
2026-05-07 11:12 55.86738 -4.43671 28 ft 8 kts 98°
2026-05-07 11:12 55.86703 -4.43612 28 ft 6 kts 170°
2026-05-07 11:12 55.86688 -4.43606 28 ft 1 kts 166°
2026-05-07 11:13 55.86682 -4.43603 28 ft 1 kts 163°
2026-05-07 11:13 55.86670 -4.43602 28 ft 2 kts 192°
2026-05-07 11:13 55.86660 -4.43629 28 ft 3 kts 250°
2026-05-07 11:13 55.86650 -4.43682 28 ft 5 kts 252°
2026-05-07 11:14 55.86645 -4.43712 28 ft 0 kts 253°
2026-05-07 11:14 55.86644 -4.43716 28 ft 1 kts 253°
2026-05-07 11:14 55.86640 -4.43742 28 ft 1 kts 253°